Change the Weather History Date:

Thursday, May 8, 2014

  Actual Average (KSNY) Record (KSNY)
Temperature  
Mean Temperature 39 °F 55 °F  
Max Temperature 46 °F 70 °F 88 °F (2011)
Min Temperature 32 °F 41 °F 25 °F (2010)
Degree Days  
Heating Degree Days 26 10  
Month to date heating degree days 89  
Since 1 July heating degree days 6001  
Cooling Degree Days 0 0  
Month to date cooling degree days 0  
Year to date cooling degree days 1  
Moisture  
Dew Point 34 °F    
Average Humidity 85    
Maximum Humidity 96    
Minimum Humidity 68    
Precipitation  
Precipitation 0.08 in 0.09 in 0.86 in (1957)
Month to date precipitation 0.81  
Year to date precipitation 4.48  
Sea Level Pressure  
Sea Level Pressure 29.85 in    
Wind  
Wind Speed 15 mph (NNW)    
Max Wind Speed 24 mph    
Max Gust Speed 30 mph    
Visibility 8 miles    
Events Rain , Snow , Thunderstorm    
T = Trace of Precipitation, MM = Missing Value Source: NWS Daily Summary

Daily Weather History Graph

Daily Weather History Graph

Search for Another Location

Airport or City:

Trip Planner

Search our weather history database for the weather conditions in past years. The results will help you decide how hot, cold, wet, or windy it might be!

Date:

Astronomy

May. 08, 2014 Rise Set
Actual Time 6:43 AM CDT 8:59 PM CDT
Civil Twilight 6:13 AM CDT 9:30 PM CDT
Nautical Twilight 5:35 AM CDT 10:07 PM CDT
Astronomical Twilight 4:53 AM CDT 10:49 PM CDT
Moon 2:58 PM CDT (5/8) 3:19 AM CDT (5/8)
Length of Visible Light 15h 16m
Length of Day
14h 15m
Waxing Gibbous, 65% of the Moon is Illuminated
May 8
Waxing Gibbous
May 14
Full
May 21
Last Quarter
May 28
New
Jun 5
First Quarter

Hourly Weather History & Observations

Time (CDT) Temp. Windchill Dew Point Humidity Pressure Visibility Wind Dir Wind Speed Gust Speed Precip Events Conditions
12:15 AM 38.3 °F 27.6 °F 35.8 °F 91% 29.79 in 5.0 mi NNW 23.0 mph - 0.03 in Rain Rain
12:35 AM 36.7 °F 26.0 °F 34.3 °F 91% 29.81 in 10.0 mi North 20.7 mph 27.6 mph 0.03 in Rain , Thunderstorm Light Thunderstorms and Rain
12:55 AM 36.5 °F 26.7 °F 34.0 °F 91% 29.82 in 10.0 mi North 17.3 mph - 0.04 in Rain , Thunderstorm Light Thunderstorms and Rain
1:15 AM 35.1 °F 25.5 °F 32.5 °F 91% 29.82 in 7.0 mi North 15.0 mph - 0.01 in Rain , Thunderstorm Light Thunderstorms and Rain
1:35 AM 33.4 °F 22.3 °F 32.0 °F 94% 29.81 in 4.0 mi North 18.4 mph - 0.02 in Snow Light Snow
1:55 AM 33.1 °F 23.0 °F 32.0 °F 96% 29.79 in 4.0 mi North 15.0 mph 20.7 mph 0.02 in Snow , Thunderstorm Light Thunderstorms and Snow
2:15 AM 33.4 °F 23.9 °F 32.0 °F 94% 29.81 in 7.0 mi North 13.8 mph 23.0 mph N/A Snow Light Snow
2:35 AM 33.8 °F 23.5 °F 32.0 °F 93% 29.79 in 10.0 mi North 16.1 mph - 0.01 in   Overcast
2:55 AM 34.2 °F 23.3 °F 32.2 °F 92% 29.77 in 7.0 mi North 18.4 mph - 0.01 in Rain Light Rain
3:15 AM 34.0 °F 22.7 °F 32.0 °F 92% 29.76 in 10.0 mi North 19.6 mph 24.2 mph N/A Rain Light Rain
3:35 AM 33.8 °F 24.3 °F 32.0 °F 93% 29.79 in 5.0 mi NW 13.8 mph - 0.01 in Snow Light Snow
3:55 AM 33.1 °F 22.2 °F 31.8 °F 95% 29.77 in 1.0 mi NW 17.3 mph - 0.01 in Snow Snow
4:15 AM 32.9 °F 22.8 °F 31.6 °F 95% 29.78 in 1.2 mi NW 15.0 mph 21.9 mph N/A Snow , Thunderstorm Light Thunderstorms and Snow
4:35 AM 32.9 °F 22.8 °F 32.0 °F 96% 29.78 in 1.2 mi NW 15.0 mph 21.9 mph N/A Snow Light Snow
4:55 AM 33.1 °F 23.4 °F 31.8 °F 95% 29.80 in 1.5 mi NNW 13.8 mph 19.6 mph N/A Snow Light Snow
5:15 AM 33.1 °F 25.5 °F 31.8 °F 95% 29.81 in 2.0 mi NW 9.2 mph - N/A Snow Light Snow
5:35 AM 33.1 °F 24.9 °F 31.8 °F 95% 29.83 in 2.5 mi NW 10.4 mph 16.1 mph N/A Snow Light Snow
5:55 AM 33.1 °F 25.5 °F 31.8 °F 95% 29.83 in 2.5 mi NNW 9.2 mph - N/A Snow Light Snow
6:15 AM 33.1 °F 25.5 °F 31.8 °F 95% 29.83 in 2.0 mi NW 9.2 mph - N/A Snow Light Snow
6:35 AM 33.1 °F 25.5 °F 32.0 °F 96% 29.82 in 2.0 mi NW 9.2 mph - N/A Snow Light Snow
6:55 AM 33.1 °F 24.9 °F 31.8 °F 95% 29.82 in 2.5 mi NNW 10.4 mph - N/A Snow Light Snow
7:15 AM 33.1 °F 24.9 °F 32.0 °F 96% 29.81 in 1.5 mi NNW 10.4 mph - N/A Snow Light Snow
7:35 AM 33.3 °F 23.7 °F 32.0 °F 95% 29.81 in 4.0 mi NNW 13.8 mph - N/A Snow Light Snow
7:55 AM 33.4 °F 23.1 °F 31.6 °F 93% 29.80 in 5.0 mi NNW 16.1 mph - N/A Snow Light Snow
8:15 AM 33.8 °F 23.2 °F 31.8 °F 92% 29.79 in 10.0 mi NNW 17.3 mph - N/A   Overcast
8:35 AM 34.2 °F 23.3 °F 32.0 °F 92% 29.80 in 10.0 mi NNW 18.4 mph - N/A   Overcast
8:55 AM 34.0 °F 21.5 °F 31.8 °F 92% 29.79 in 10.0 mi NNW 24.2 mph 28.8 mph N/A   Overcast
9:15 AM 34.2 °F 23.3 °F 31.8 °F 91% 29.82 in 10.0 mi NNW 18.4 mph 26.5 mph N/A   Overcast
9:35 AM 34.7 °F 24.0 °F 31.8 °F 89% 29.84 in 10.0 mi NW 18.4 mph 24.2 mph N/A   Overcast
9:55 AM 34.5 °F 24.8 °F 31.8 °F 90% 29.84 in 10.0 mi NNW 15.0 mph 23.0 mph N/A   Overcast
10:15 AM 35.6 °F 26.6 °F 32.0 °F 87% 29.85 in 10.0 mi NW 13.8 mph - N/A   Overcast
10:35 AM 35.8 °F 25.1 °F 32.0 °F 86% 29.84 in 10.0 mi NNW 19.6 mph 25.3 mph N/A   Overcast
10:55 AM 37.0 °F 25.9 °F 32.4 °F 83% 29.84 in 10.0 mi NNW 23.0 mph 29.9 mph N/A   Overcast
11:15 AM 37.8 °F 26.8 °F 32.9 °F 83% 29.85 in 10.0 mi NNW 23.0 mph - N/A   Overcast
11:35 AM 37.8 °F 28.6 °F 33.1 °F 83% 29.87 in 10.0 mi NNW 16.1 mph 23.0 mph N/A   Overcast
11:55 AM 38.1 °F 28.1 °F 33.3 °F 83% 29.87 in 10.0 mi NNW 19.6 mph - N/A   Overcast
12:15 PM 39.2 °F 29.6 °F 33.8 °F 81% 29.87 in 10.0 mi NNW 19.6 mph 23.0 mph N/A   Overcast
12:35 PM 39.9 °F 30.8 °F 34.2 °F 80% 29.87 in 10.0 mi NNW 18.4 mph 24.2 mph N/A   Overcast
12:55 PM 41.5 °F 33.2 °F 35.4 °F 79% 29.86 in 10.0 mi NNW 17.3 mph 24.2 mph N/A   Overcast
1:15 PM 42.3 °F 33.8 °F 35.6 °F 77% 29.86 in 10.0 mi NNW 18.4 mph - N/A   Overcast
1:35 PM 42.6 °F 34.0 °F 35.2 °F 75% 29.86 in 10.0 mi North 19.6 mph - N/A   Overcast
1:55 PM 43.0 °F 35.1 °F 35.2 °F 74% 29.86 in 10.0 mi North 17.3 mph - N/A   Overcast
2:15 PM 43.5 °F 36.1 °F 35.8 °F 74% 29.85 in 10.0 mi North 16.1 mph - N/A   Overcast
2:35 PM 43.9 °F 36.8 °F 36.1 °F 74% 29.85 in 10.0 mi North 15.0 mph 21.9 mph N/A   Overcast
2:55 PM 43.5 °F 37.5 °F 36.0 °F 75% 29.86 in 10.0 mi North 11.5 mph 18.4 mph N/A   Overcast
3:35 PM 46.2 °F 40.5 °F 37.2 °F 71% 29.86 in 10.0 mi North 12.7 mph 17.3 mph N/A   Overcast
3:55 PM 44.6 °F 39.2 °F 36.1 °F 72% 29.87 in 10.0 mi North 10.4 mph - N/A   Overcast
4:15 PM 45.1 °F 39.5 °F 35.1 °F 68% 29.87 in 10.0 mi North 11.5 mph - N/A   Overcast
4:35 PM 44.6 °F 38.8 °F 35.1 °F 69% 29.87 in 10.0 mi North 11.5 mph 16.1 mph N/A   Overcast
4:55 PM 45.1 °F 39.9 °F 35.1 °F 68% 29.87 in 10.0 mi North 10.4 mph - N/A   Mostly Cloudy
5:15 PM 45.1 °F 40.3 °F 36.5 °F 72% 29.87 in 10.0 mi NNE 9.2 mph - N/A   Mostly Cloudy
5:35 PM 45.5 °F 41.8 °F 36.3 °F 70% 29.87 in 10.0 mi North 6.9 mph 16.1 mph N/A   Overcast
5:55 PM 45.1 °F 40.8 °F 36.1 °F 71% 29.89 in 10.0 mi North 8.1 mph - N/A   Overcast
6:15 PM 43.9 °F 39.3 °F 36.0 °F 74% 29.89 in 10.0 mi North 8.1 mph - N/A   Overcast
6:35 PM 44.4 °F 40.5 °F 36.3 °F 73% 29.89 in 10.0 mi NNE 6.9 mph - N/A   Overcast
6:55 PM 45.5 °F 41.8 °F 36.9 °F 72% 29.90 in 10.0 mi NE 6.9 mph - N/A   Mostly Cloudy
7:15 PM 44.8 °F 41.6 °F 36.0 °F 71% 29.90 in 10.0 mi NNE 5.8 mph - N/A   Mostly Cloudy
7:55 PM 43.5 °F 38.9 °F 35.8 °F 74% 29.91 in 10.0 mi NE 8.1 mph - N/A   Mostly Cloudy
8:15 PM 42.8 °F 40.1 °F 36.5 °F 78% 29.91 in 10.0 mi East 4.6 mph - N/A   Clear
8:35 PM 41.7 °F 38.8 °F 35.6 °F 79% 29.91 in 10.0 mi ENE 4.6 mph - N/A   Clear
8:55 PM 40.1 °F 36.1 °F 36.1 °F 86% 29.93 in 10.0 mi NE 5.8 mph - N/A   Clear
9:15 PM 38.5 °F 34.1 °F 35.2 °F 88% 29.93 in 10.0 mi NE 5.8 mph - N/A   Scattered Clouds
9:35 PM 37.4 °F - 34.7 °F 90% 29.92 in 10.0 mi Calm Calm - N/A   Clear
9:55 PM 37.4 °F - 34.3 °F 89% 29.92 in 10.0 mi Calm Calm - N/A   Clear
10:15 PM 37.2 °F 32.6 °F 33.8 °F 87% 29.92 in 10.0 mi SSE 5.8 mph - N/A   Clear
10:35 PM 36.9 °F - 34.3 °F 91% 29.92 in 10.0 mi Calm Calm - N/A   Mostly Cloudy
10:55 PM 37.2 °F - 34.7 °F 91% 29.94 in 10.0 mi Calm Calm - N/A   Scattered Clouds
11:15 PM 36.7 °F - 34.2 °F 91% 29.94 in 10.0 mi Calm Calm - N/A   Clear
11:35 PM 36.9 °F 32.2 °F 34.3 °F 91% 29.94 in 10.0 mi South 5.8 mph - N/A   Mostly Cloudy
11:55 PM 37.4 °F 34.9 °F 34.9 °F 91% 29.94 in 10.0 mi SSW 3.5 mph - N/A   Scattered Clouds